[[{"header":{"parameterUnit":"m.s-1","parameterCategory":2,"la1":30.2991,"la2":30.254,"lo1":-89.0895,"lo2":-89.0444,"dy":0.0017,"dx":0.0017,"nx":28,"ny":28,"refTime":"2023-08-07T09:00:00:Z","depth":"0","parameterNumber":2,"parameterNumberName":"U-component_of_CURRENTS"},"data":[0,0,0,0,0,0,0,0,0,0,0,0,0,0,0,0,0,0,0,0,0,0,0,0,0,0,0,0,0,0,0,0,0,0,0,0,0,0,0,0,0,0,0,0,0,0,0,0,0,0,0,0,0,0,0,0,0,0,0.2179,0.218,0,0.2357,0.2359,0.2362,0.2455,0.2455,0.2455,0.2455,0.264,0.2645,0.265,0,0,0,0,0,0,0,0,0,0,0,0,0,0.2045,0.2046,0.2178,0.2181,0.2183,0.2357,0.236,0.2362,0.2455,0.2455,0.2455,0.2455,0.2638,0.2644,0.265,0,0,0,0,0,0,0,0,0,0,0,0,0,0.2152,0.2046,0.2178,0.2249,0.2257,0.2356,0.236,0.2363,0.2455,0.2455,0.2455,0.2455,0.2636,0.2644,0.2651,0.2696,0,0,0.2673,0.2677,0,0,0,0,0,0,0,0,0.2145,0.2157,0.2237,0.2244,0.2254,0.2383,0.238,0.2474,0.2455,0.2381,0.2455,0.2455,0.2554,0.2568,0.2603,0.2705,0.2712,0.2674,0.2678,0.2682,0.2684,0,0,0,0,0,0,0,0.2138,0.215,0.2251,0.2239,0.2249,0.2316,0.233,0.2399,0.2466,0.2388,0.2395,0.2412,0.2558,0.2596,0.2608,0.2715,0.2674,0.268,0.2685,0.2688,0.2891,0.2892,0,0,0,0,0,0,0.2107,0.2143,0.2245,0.2256,0.2197,0.2317,0.2333,0.2342,0.2466,0.2484,0.2412,0.2416,0.2583,0.26,0.2615,0.2693,0.2682,0.2688,0.2693,0.289,0.2891,0.2892,0,0,0,0,0,0,0.2103,0.2113,0.2238,0.2203,0.2223,0.2318,0.2329,0.2346,0.2372,0.2484,0.2503,0.2419,0.2584,0.2605,0.2675,0.27,0.2692,0.2698,0.2889,0.2891,0.2892,0.2837,0,0,0,0,0,0,0.2098,0.2111,0.2108,0.22,0.2224,0.2283,0.2329,0.2349,0.2383,0.239,0.2496,0.2514,0.2586,0.2663,0.2682,0.271,0.2704,0.2888,0.289,0.2891,0.2838,0.2837,0.2836,0,0,0,0,0,0.2092,0.2092,0.2107,0.2119,0.2216,0.2282,0.23,0.237,0.2383,0.2393,0.2469,0.251,0.2689,0.267,0.2692,0.2722,0.2887,0.2889,0.2891,0.2838,0.2837,0.2836,0,0,0,0,0,0,0.2042,0.2104,0.2122,0.2142,0.2197,0.2297,0.2324,0.2354,0.2423,0.2436,0.2521,0.2545,0.2619,0.2673,0.2649,0.2787,0.2796,0.2803,0.2748,0.2748,0.2747,0.2723,0.271,0,0,0,0,0,0.2024,0.2037,0.2106,0.2123,0.2147,0.2225,0.226,0.2305,0.2378,0.2408,0.2483,0.2569,0.2649,0.2694,0.2773,0.2842,0.2889,0.2877,0.2876,0.2875,0.2871,0.2958,0.2963,0.29,0.29,0.29,0,0,0.2011,0.2047,0.2055,0.2112,0.2166,0.2215,0.2247,0.23,0.2344,0.2419,0.2499,0.2564,0.2664,0.275,0.2788,0.2796,0.2918,0.2878,0.2876,0.2873,0.296,0.2967,0.2972,0.2901,0.2901,0.2901,0,0,0.2008,0.2021,0.2038,0.2079,0.2147,0.22,0.2202,0.2292,0.2332,0.2403,0.2478,0.2545,0.2664,0.2748,0.2803,0.2838,0.2904,0.2868,0.2854,0.2938,0.2943,0.2949,0.3011,0.3023,0.2874,0.2874,0.2874,0,0.1995,0.2024,0.2054,0.2089,0.2131,0.2184,0.2226,0.2277,0.2378,0.2416,0.2419,0.2596,0.2666,0.2783,0.2798,0.2836,0.2888,0.2847,0.2935,0.2941,0.2948,0.3011,0.3024,0.2872,0.2872,0.2872,0.2872,0,0.2014,0.2039,0.2056,0.2115,0.2155,0.22,0.2269,0.231,0.2349,0.2408,0.2502,0.2593,0.2699,0.2732,0.2776,0.2871,0.2893,0.2915,0.293,0.295,0.3016,0.3031,0.2868,0.2869,0.287,0.287,0,0,0.1993,0.2057,0.2064,0.2096,0.2174,0.2215,0.2274,0.2352,0.2396,0.2465,0.253,0.2644,0.2679,0.2742,0.281,0.2872,0.2953,0.2906,0.2912,0.2954,0.313,0.3153,0.3172,0.2994,0.2997,0.2999,0.3155,0,0.201,0.2066,0.2098,0.2163,0.2203,0.2259,0.2311,0.2381,0.2438,0.2509,0.2584,0.2673,0.2691,0.2743,0.2806,0.2928,0.2991,0.2907,0.3117,0.3123,0.3129,0.3189,0.3141,0.3277,0.317,0.3172,0.3174,0,0.2025,0.2064,0.2118,0.2193,0.2216,0.2255,0.2343,0.2398,0.2493,0.2536,0.2613,0.2679,0.2792,0.2789,0.2982,0.2932,0.3021,0.3093,0.3102,0.3151,0.3174,0.3244,0.3309,0.3102,0.3197,0.3196,0.3194,0,0.2004,0.208,0.212,0.2148,0.2236,0.2265,0.2314,0.2403,0.2455,0.2555,0.2606,0.2728,0.2811,0.2928,0.3065,0.3042,0.3261,0.3259,0.3359,0.3361,0.3376,0.3375,0.3255,0.3386,0.3385,0.3385,0.3384,0,0.2012,0.2048,0.2108,0.2133,0.2185,0.2248,0.2309,0.2368,0.2457,0.2525,0.2618,0.2697,0.2851,0.2989,0.3089,0.3277,0.3295,0.3371,0.3414,0.3355,0.3351,0.3217,0.3115,0.3391,0.339,0.3388,0.3387,0,0.199,0.2027,0.2078,0.2153,0.2174,0.221,0.2294,0.2343,0.2427,0.2518,0.2554,0.2709,0.2894,0.3046,0.3256,0.3332,0.3393,0.3546,0.3453,0.3482,0.3372,0.3271,0.3186,0.3133,0.3691,0.3692,0.3694,0,0.1989,0.2008,0.2075,0.2098,0.213,0.2185,0.2227,0.2313,0.2372,0.2523,0.2574,0.2765,0.2911,0.3222,0.3402,0.3614,0.3444,0.3661,0.3606,0.3365,0.3286,0.3123,0.3072,0.3604,0.3604,0.3605,0.3605,0,0.199,0.2003,0.2042,0.2082,0.212,0.2167,0.2232,0.227,0.2379,0.2473,0.261,0.2733,0.3044,0.3235,0.3504,0.3635,0.345,0.3677,0.3463,0.3237,0.302,0.2991,0.3474,0.3609,0.3609,0.3609,0.3608,0.3608,0.1988,0.2005,0.2041,0.2081,0.2114,0.2148,0.2172,0.2249,0.2335,0.2454,0.2586,0.2748,0.2991,0.3386,0.3512,0.3574,0.3511,0.3469,0.3382,0.3248,0.3134,0.3613,0.3771,0.3772,0.3772,0.3773,0.3773,0,0.1998,0.2012,0.2044,0.2079,0.2096,0.2123,0.218,0.2194,0.227,0.2397,0.2521,0.2736,0.2934,0.3141,0.3322,0.325,0.3191,0.3105,0.2822,0.2807,0.3277,0.3205,0.3203,0.3203,0.3204,0.3204,0.3204,0.3204,0.2004,0.2025,0.2038,0.2056,0.2072,0.2077,0.2097,0.2118,0.2186,0.228,0.2377,0.2489,0.2646,0.2721,0.2739,0.276,0.2534,0.2445,0.2373,0.2619,0.2643,0.2665,0.2568,0.2434,0.2433,0.1864,0.1859,0.1855]},{"header":{"parameterUnit":"m.s-1","parameterCategory":2,"la1":30.2991,"la2":30.254,"lo1":-89.0895,"lo2":-89.0444,"dy":0.0017,"dx":0.0017,"nx":28,"ny":28,"refTime":"2023-08-07T09:00:00:Z","depth":"0","parameterNumber":3,"parameterNumberName":"V-component_of_CURRENTS"},"data":[0,0,0,0,0,0,0,0,0,0,0,0,0,0,0,0,0,0,0,0,0,0,0,0,0,0,0,0,0,0,0,0,0,0,0,0,0,0,0,0,0,0,0,0,0,0,0,0,0,0,0,0,0,0,0,0,0,0,0.026,0.026,0,0.0282,0.0282,0.0282,0.0284,0.0284,0.0283,0.0283,0.0235,0.0234,0.0233,0,0,0,0,0,0,0,0,0,0,0,0,0,0.0213,0.0214,0.026,0.026,0.026,0.0282,0.0282,0.0282,0.0284,0.0284,0.0283,0.0283,0.0235,0.0234,0.0233,0,0,0,0,0,0,0,0,0,0,0,0,0,0.0234,0.0214,0.026,0.0263,0.0264,0.0282,0.0282,0.0282,0.0284,0.0284,0.0283,0.0283,0.0235,0.0234,0.0232,0.0231,0,0,0.0228,0.0227,0,0,0,0,0,0,0,0,0.0233,0.0236,0.0263,0.0263,0.0264,0.028,0.0248,0.0262,0.0284,0.0277,0.0283,0.0283,0.0243,0.0241,0.0247,0.0228,0.0226,0.0227,0.0227,0.0226,0.0225,0,0,0,0,0,0,0,0.0231,0.0235,0.0269,0.0263,0.0264,0.0262,0.0265,0.0251,0.0261,0.0277,0.0277,0.028,0.0243,0.0249,0.0246,0.0226,0.0228,0.0226,0.0225,0.0225,0.0206,0.0206,0,0,0,0,0,0,0.0229,0.0234,0.0268,0.0269,0.0247,0.0263,0.0266,0.0275,0.0262,0.0261,0.028,0.028,0.0252,0.0248,0.0244,0.0245,0.0226,0.0224,0.0224,0.0205,0.0206,0.0206,0,0,0,0,0,0,0.0228,0.0232,0.0267,0.0251,0.0255,0.0264,0.0274,0.0276,0.0282,0.0265,0.0262,0.0285,0.0251,0.0246,0.0241,0.0242,0.0224,0.0222,0.0205,0.0205,0.0206,0.0243,0,0,0,0,0,0,0.0227,0.0232,0.0239,0.0251,0.0256,0.0282,0.0275,0.0276,0.0284,0.0284,0.0268,0.0263,0.0251,0.0244,0.024,0.024,0.0221,0.0204,0.0205,0.0206,0.0241,0.0244,0.0247,0,0,0,0,0,0.0225,0.0238,0.0239,0.0243,0.0265,0.0282,0.0285,0.0289,0.0284,0.0292,0.0285,0.0264,0.0246,0.0244,0.0238,0.0238,0.0204,0.0205,0.0206,0.0239,0.0244,0.0247,0,0,0,0,0,0,0.0215,0.024,0.0241,0.0259,0.027,0.0282,0.0289,0.0291,0.0293,0.0289,0.0272,0.0268,0.0263,0.0248,0.0245,0.0235,0.022,0.022,0.0247,0.0251,0.0254,0.0256,0.022,0,0,0,0,0,0.0218,0.0237,0.0253,0.0265,0.0271,0.028,0.0287,0.029,0.0293,0.0294,0.0284,0.0272,0.0264,0.0256,0.0246,0.0241,0.022,0.0236,0.024,0.0243,0.0241,0.022,0.0221,0.0209,0.0209,0.0209,0,0,0.0215,0.0232,0.0241,0.0265,0.0272,0.0288,0.0283,0.0295,0.0304,0.0286,0.0292,0.0283,0.0266,0.0265,0.026,0.0251,0.0236,0.0244,0.0247,0.0243,0.0221,0.0222,0.0223,0.021,0.021,0.021,0,0,0.0225,0.0236,0.0257,0.0269,0.0286,0.0293,0.0297,0.031,0.0312,0.0319,0.0308,0.0305,0.0291,0.0284,0.0277,0.0292,0.0256,0.0283,0.0297,0.0277,0.0278,0.0278,0.0256,0.0254,0.0282,0.0282,0.0282,0,0.0217,0.0251,0.0262,0.0284,0.0296,0.0296,0.0316,0.0318,0.0327,0.0328,0.0323,0.0312,0.0301,0.0297,0.0306,0.0299,0.0278,0.0284,0.0281,0.0281,0.0281,0.0257,0.0255,0.0284,0.0284,0.0284,0.0284,0,0.0246,0.0269,0.028,0.031,0.0323,0.0339,0.0345,0.035,0.0349,0.0351,0.0349,0.034,0.0332,0.0329,0.0322,0.0315,0.0299,0.029,0.0271,0.0284,0.0259,0.0255,0.0287,0.0286,0.0286,0.0285,0,0,0.0241,0.0292,0.0296,0.0316,0.034,0.0354,0.0362,0.0375,0.0382,0.0377,0.0385,0.0374,0.0365,0.0357,0.0345,0.0329,0.0316,0.031,0.0308,0.0287,0.0265,0.0253,0.0248,0.0303,0.0303,0.0302,0.0249,0,0.026,0.031,0.0328,0.0364,0.0389,0.0392,0.0404,0.0409,0.0409,0.0415,0.0395,0.0397,0.0376,0.0376,0.0357,0.0335,0.0308,0.0331,0.0255,0.0253,0.0241,0.0244,0.0305,0.0262,0.0245,0.0245,0.0244,0,0.0288,0.032,0.0364,0.0403,0.0413,0.0428,0.0447,0.0457,0.0455,0.0453,0.0441,0.0429,0.0414,0.0392,0.0339,0.0353,0.0308,0.0281,0.0278,0.025,0.0235,0.0246,0.0256,0.0228,0.0238,0.0239,0.0239,0,0.0296,0.0345,0.0383,0.0397,0.0436,0.0448,0.046,0.0467,0.048,0.0475,0.0488,0.0455,0.0455,0.0392,0.0346,0.0337,0.0285,0.0264,0.0202,0.0201,0.0229,0.0231,0.0204,0.0207,0.0207,0.0207,0.0207,0,0.032,0.035,0.039,0.041,0.0444,0.0464,0.0491,0.0494,0.051,0.0532,0.0508,0.0524,0.0455,0.0424,0.0355,0.0279,0.0287,0.0202,0.0186,0.0244,0.0248,0.0205,0.0146,0.0205,0.0206,0.0206,0.0206,0,0.033,0.0359,0.0399,0.0439,0.0453,0.0473,0.0512,0.0531,0.0544,0.0574,0.0576,0.0576,0.0544,0.0471,0.0386,0.0303,0.0194,0.0188,0.0262,0.0254,0.0153,0.0093,-0.0015,-0.0039,0.0098,0.0098,0.0097,0,0.0343,0.0368,0.0412,0.0432,0.0451,0.0485,0.0511,0.0537,0.0563,0.0611,0.063,0.0623,0.0637,0.0517,0.039,0.0263,0.0191,0.0194,0.0179,0.0154,0.0075,0.0029,0.0014,0.0233,0.0234,0.0234,0.0235,0,0.0359,0.0371,0.04,0.0439,0.047,0.0513,0.0553,0.0584,0.0623,0.0673,0.0734,0.0759,0.0672,0.0613,0.0441,0.033,0.0168,0.0197,0.0161,0.0163,0.0122,0.0091,0.0256,0.0239,0.0239,0.0238,0.0238,0.0238,0.0357,0.0375,0.0407,0.0443,0.0483,0.054,0.0583,0.0648,0.0721,0.0828,0.0835,0.0936,0.0842,0.0641,0.047,0.0243,0.018,0.0182,0.0105,0.0059,0.0048,0.0214,0.0184,0.0183,0.0182,0.0182,0.0181,0,0.0346,0.0372,0.041,0.0458,0.0505,0.0531,0.0612,0.0675,0.0784,0.0929,0.1023,0.1106,0.0966,0.0763,0.0451,0.0233,0.0143,0.0113,0.009,0.0073,0.0234,0.0258,0.0256,0.0256,0.0256,0.0256,0.0256,0.0256,0.034,0.0365,0.0391,0.0463,0.0507,0.0582,0.0637,0.075,0.0875,0.1085,0.123,0.1338,0.1246,0.0681,0.0302,0.0181,0.0044,-0.0019,-0.0111,0.0041,0.0043,0.0046,0.0059,0.0016,0.0015,-0.0185,-0.0188,-0.0189]}],[{"header":{"parameterUnit":"m.s-1","parameterCategory":2,"la1":30.2991,"la2":30.254,"lo1":-89.0895,"lo2":-89.0444,"dy":0.0017,"dx":0.0017,"nx":28,"ny":28,"refTime":"2023-08-07T09:00:00:Z","depth":"2","parameterNumber":2,"parameterNumberName":"U-component_of_CURRENTS"},"data":[0,0,0,0,0,0,0,0,0,0,0,0,0,0,0,0,0,0,0,0,0,0,0,0,0,0,0,0,0,0,0,0,0,0,0,0,0,0,0,0,0,0,0,0,0,0,0,0,0,0,0,0,0,0,0,0,0,0,0.0696,0.0698,0,0.0818,0.0819,0.082,0.0802,0.08,0.0798,0.0797,0.0849,0.0852,0.0855,0,0,0,0,0,0,0,0,0,0,0,0,0,0.0533,0.0535,0.0696,0.0698,0.07,0.0818,0.0819,0.082,0.0802,0.08,0.0798,0.0796,0.0848,0.0851,0.0855,0,0,0,0,0,0,0,0,0,0,0,0,0,0.062,0.0536,0.0696,0.0708,0.0711,0.0818,0.0819,0.0821,0.0803,0.08,0.0798,0.0795,0.0847,0.0851,0.0855,0.0933,0,0,0.0869,0.0871,0,0,0,0,0,0,0,0,0.0615,0.0625,0.0704,0.0708,0.0711,0.0796,0.0781,0.0856,0.0803,0.0763,0.0797,0.0794,0.0829,0.0835,0.0858,0.0935,0.0938,0.0869,0.0872,0.0874,0.0875,0,0,0,0,0,0,0,0.0609,0.0621,0.074,0.0707,0.0711,0.0737,0.0745,0.0796,0.0804,0.0767,0.0767,0.0788,0.0829,0.0854,0.0859,0.0938,0.0869,0.0873,0.0876,0.0878,0.1118,0.1122,0,0,0,0,0,0,0.0601,0.0615,0.0736,0.0744,0.0661,0.0742,0.0751,0.0768,0.0805,0.0811,0.079,0.0787,0.0848,0.0854,0.0861,0.0989,0.0874,0.0878,0.088,0.1115,0.1119,0.1123,0,0,0,0,0,0,0.0597,0.0611,0.0731,0.0686,0.0703,0.0747,0.0766,0.0771,0.0804,0.0825,0.0827,0.0817,0.0846,0.0855,0.0941,0.0989,0.088,0.0884,0.111,0.1116,0.1121,0.1223,0,0,0,0,0,0,0.0592,0.0608,0.0629,0.0685,0.0706,0.0808,0.0769,0.0776,0.0822,0.0819,0.085,0.0851,0.0845,0.0935,0.0945,0.0993,0.0887,0.1105,0.1113,0.1119,0.1215,0.1232,0.1246,0,0,0,0,0,0.0586,0.0622,0.0629,0.0645,0.0728,0.0811,0.0825,0.0844,0.0826,0.0859,0.0891,0.085,0.0985,0.0943,0.0954,0.1004,0.1102,0.1111,0.1119,0.1208,0.1229,0.1246,0,0,0,0,0,0,0.0572,0.0627,0.0634,0.0687,0.0751,0.0809,0.0856,0.0862,0.0916,0.0914,0.0912,0.092,0.1011,0.1008,0.096,0.1097,0.1032,0.1044,0.1097,0.1116,0.1131,0.1121,0.0891,0,0,0,0,0,0.058,0.0616,0.0678,0.0729,0.0764,0.0813,0.0852,0.0866,0.0919,0.0938,0.0965,0.1001,0.1059,0.1084,0.1131,0.1216,0.1193,0.1254,0.127,0.1282,0.1286,0.1309,0.1326,0.1151,0.1151,0.1151,0,0,0.0589,0.0629,0.0649,0.0729,0.0781,0.085,0.083,0.0903,0.0956,0.0939,0.1029,0.1064,0.1098,0.1191,0.1229,0.1189,0.1324,0.1293,0.1303,0.1299,0.132,0.1336,0.1351,0.1157,0.1156,0.1155,0,0,0.0639,0.0669,0.0719,0.0774,0.0859,0.0894,0.0918,0.0992,0.102,0.1118,0.1121,0.119,0.1274,0.1309,0.1335,0.1469,0.141,0.1483,0.1547,0.1571,0.1584,0.1595,0.159,0.16,0.1483,0.1483,0.1483,0,0.0652,0.0717,0.0753,0.0823,0.0875,0.0916,0.0986,0.104,0.1129,0.1166,0.1156,0.1301,0.1329,0.1435,0.1485,0.1501,0.1493,0.1468,0.1587,0.1598,0.1607,0.1599,0.1609,0.1489,0.1488,0.1488,0.1487,0,0.0736,0.0794,0.0841,0.093,0.0991,0.1065,0.1134,0.1197,0.1234,0.1277,0.1392,0.1447,0.1521,0.1552,0.1565,0.1664,0.1629,0.1605,0.1528,0.163,0.1616,0.1624,0.1497,0.1495,0.1493,0.1492,0,0,0.0761,0.087,0.089,0.0935,0.1047,0.1103,0.1205,0.1303,0.1352,0.1445,0.1513,0.1644,0.1658,0.1692,0.1716,0.1747,0.1821,0.1715,0.1714,0.1689,0.1858,0.1648,0.1636,0.1814,0.1816,0.1818,0.1819,0,0.0824,0.0938,0.0983,0.11,0.1167,0.1226,0.1306,0.1391,0.1459,0.1533,0.1604,0.1687,0.1715,0.1751,0.1801,0.1816,0.1849,0.1822,0.1781,0.1779,0.1562,0.164,0.1539,0.1514,0.1826,0.1828,0.1828,0,0.0907,0.0965,0.1072,0.1164,0.1198,0.1261,0.1372,0.1451,0.1558,0.1606,0.1702,0.1746,0.1852,0.1832,0.1921,0.1902,0.1902,0.1898,0.1897,0.1666,0.1584,0.1465,0.1516,0.1841,0.184,0.1839,0.1838,0,0.0915,0.1035,0.1107,0.1147,0.1256,0.1303,0.1364,0.1473,0.1535,0.1652,0.1694,0.1813,0.1865,0.1907,0.194,0.1935,0.1982,0.1961,0.1773,0.1757,0.1641,0.1609,0.201,0.201,0.201,0.201,0.201,0,0.0978,0.1045,0.1106,0.1152,0.1219,0.1298,0.138,0.1455,0.1551,0.1619,0.1727,0.1786,0.1888,0.1932,0.1947,0.1876,0.1995,0.1788,0.1746,0.1672,0.1644,0.1902,0.1889,0.201,0.201,0.201,0.201,0,0.1011,0.1056,0.1131,0.121,0.1231,0.1282,0.1374,0.1426,0.1524,0.1611,0.1653,0.1784,0.1839,0.1897,0.1944,0.1853,0.182,0.1766,0.165,0.1592,0.1577,0.1571,0.1544,0.1536,0.153,0.1525,0.152,0,0.1055,0.109,0.1147,0.1165,0.1203,0.127,0.1309,0.1409,0.1461,0.16,0.1629,0.1724,0.173,0.1695,0.1601,0.1532,0.1705,0.1379,0.1333,0.1568,0.1533,0.1536,0.1538,0.1248,0.1242,0.1237,0.1233,0,0.1112,0.1111,0.1146,0.1167,0.12,0.1239,0.13,0.1325,0.1439,0.1493,0.1563,0.1565,0.1506,0.1378,0.125,0.1198,0.1371,0.1258,0.1585,0.1338,0.1277,0.1245,0.126,0.1187,0.1192,0.1195,0.1198,0.1199,0.1133,0.1142,0.115,0.1171,0.1192,0.1199,0.1211,0.1264,0.1305,0.1326,0.1365,0.13,0.1169,0.0884,0.087,0.0912,0.0943,0.0944,0.0967,0.0994,0.0915,0.0842,0.0657,0.0658,0.0659,0.0661,0.0661,0,0.1155,0.1145,0.1156,0.1157,0.1144,0.1186,0.1197,0.116,0.117,0.1162,0.1121,0.0819,0.0654,0.0712,0.0651,0.0526,0.0597,0.0587,0.0748,0.0785,0.0821,0.0745,0.0436,0.0437,0.0437,0.0438,0,0,0.1168,0.1154,0.1141,0.1105,0.1113,0.109,0.1086,0.1037,0.1003,0.0861,0.0807,0.0542,0.0578,0.0445,0.0398,0.0507,0.0671,0.048,0.0641,0.0867,0.0906,0.0973,0.0886,0,0,0,0,0]},{"header":{"parameterUnit":"m.s-1","parameterCategory":2,"la1":30.2991,"la2":30.254,"lo1":-89.0895,"lo2":-89.0444,"dy":0.0017,"dx":0.0017,"nx":28,"ny":28,"refTime":"2023-08-07T09:00:00:Z","depth":"2","parameterNumber":3,"parameterNumberName":"V-component_of_CURRENTS"},"data":[0,0,0,0,0,0,0,0,0,0,0,0,0,0,0,0,0,0,0,0,0,0,0,0,0,0,0,0,0,0,0,0,0,0,0,0,0,0,0,0,0,0,0,0,0,0,0,0,0,0,0,0,0,0,0,0,0,0,0.0692,0.0691,0,0.0564,0.0562,0.0559,0.0415,0.0414,0.0413,0.0411,0.0145,0.0139,0.0133,0,0,0,0,0,0,0,0,0,0,0,0,0,0.0731,0.0731,0.0692,0.0691,0.0691,0.0564,0.0561,0.0559,0.0416,0.0414,0.0412,0.0411,0.0146,0.014,0.0133,0,0,0,0,0,0,0,0,0,0,0,0,0,0.0662,0.0731,0.0692,0.061,0.0602,0.0565,0.0561,0.0558,0.0416,0.0414,0.0412,0.041,0.0149,0.014,0.0132,0.012,0,0,0.0105,0.0101,0,0,0,0,0,0,0,0,0.0666,0.066,0.0623,0.0615,0.0606,0.051,0.0478,0.0407,0.0417,0.0478,0.0411,0.0409,0.0261,0.0243,0.0214,0.0107,0.0096,0.0104,0.0099,0.0095,0.0093,0,0,0,0,0,0,0,0.0671,0.0664,0.0633,0.0622,0.0612,0.0551,0.0539,0.0463,0.0374,0.0473,0.0464,0.0463,0.0254,0.0223,0.0206,0.0092,0.0105,0.0097,0.0091,0.0088,-0.0094,-0.0094,0,0,0,0,0,0,0.071,0.067,0.0637,0.063,0.0641,0.0553,0.0539,0.0537,0.0377,0.0355,0.0465,0.0457,0.0239,0.0217,0.0196,0.0147,0.0095,0.0087,0.0082,-0.0095,-0.0094,-0.0094,0,0,0,0,0,0,0.0711,0.0708,0.0643,0.0653,0.0641,0.0556,0.0554,0.0536,0.0498,0.0375,0.0347,0.0447,0.0236,0.0208,0.0128,0.0136,0.0083,0.0075,-0.0095,-0.0095,-0.0094,0.0063,0,0,0,0,0,0,0.0713,0.071,0.0721,0.0656,0.0642,0.0627,0.0556,0.0535,0.0505,0.0493,0.035,0.0323,0.0232,0.0142,0.012,0.0123,0.0068,-0.0096,-0.0095,-0.0094,0.0058,0.0069,0.0079,0,0,0,0,0,0.0715,0.0738,0.0722,0.0718,0.0661,0.0629,0.0615,0.0542,0.0507,0.0498,0.0402,0.0328,0.013,0.0136,0.0109,0.011,-0.0096,-0.0095,-0.0094,0.0053,0.0067,0.0079,0,0,0,0,0,0,0.0754,0.0725,0.0705,0.0716,0.0683,0.0608,0.0606,0.0556,0.0476,0.0461,0.0335,0.0302,0.0235,0.0154,0.0164,0.0059,0.0004,-0.0,0.0125,0.0137,0.0147,0.0194,0.0061,0,0,0,0,0,0.0777,0.0788,0.0744,0.0756,0.0751,0.0684,0.0663,0.0614,0.0542,0.0504,0.041,0.0307,0.0221,0.0166,0.0082,0.0028,-0.0028,0.0009,0.002,0.003,0.0049,-0.0035,-0.0029,-0.0091,-0.0091,-0.0091,0,0,0.0794,0.0785,0.0788,0.0766,0.0739,0.0732,0.0663,0.0646,0.0622,0.0489,0.0432,0.0346,0.0217,0.0155,0.0117,0.0085,0.0023,0.0031,0.004,0.0054,-0.0033,-0.0027,-0.0021,-0.009,-0.0091,-0.0091,0,0,0.0842,0.0835,0.0859,0.0841,0.0818,0.0778,0.0781,0.0716,0.0672,0.0617,0.0515,0.0442,0.031,0.0224,0.0161,0.0182,0.0089,0.0149,0.0231,0.015,0.0155,0.0159,0.0129,0.0128,0.0147,0.0147,0.0147,0,0.0859,0.0881,0.086,0.0875,0.0868,0.0808,0.0818,0.0773,0.0682,0.0658,0.0617,0.0448,0.0344,0.0261,0.0267,0.0207,0.0164,0.0196,0.0167,0.0169,0.017,0.0138,0.0135,0.0155,0.0154,0.0153,0.0152,0,0.0913,0.0929,0.0949,0.0948,0.0941,0.0941,0.0893,0.0869,0.082,0.0766,0.0694,0.0567,0.0464,0.0421,0.0347,0.0302,0.0274,0.02,0.0145,0.0186,0.0149,0.0144,0.0166,0.0163,0.0161,0.0159,0,0,0.0923,0.0975,0.0974,0.0992,0.0975,0.097,0.0964,0.0931,0.0922,0.0843,0.0816,0.0688,0.0634,0.0562,0.046,0.0395,0.0372,0.0318,0.031,0.0309,0.0236,0.0279,0.0277,0.0293,0.0292,0.0291,0.022,0,0.0956,0.1016,0.1024,0.1059,0.108,0.1048,0.1044,0.1011,0.0967,0.0929,0.0822,0.075,0.068,0.0628,0.0564,0.0406,0.036,0.0401,0.0177,0.0172,0.0221,0.0272,0.0225,0.0163,0.0214,0.0213,0.0213,0,0.0975,0.102,0.107,0.1118,0.1125,0.1127,0.1123,0.1114,0.1061,0.1027,0.0969,0.0883,0.0788,0.0709,0.0522,0.0553,0.0426,0.0315,0.0308,0.0291,0.0205,0.0119,0.015,0.0202,0.0203,0.0204,0.0205,0,0.0966,0.1036,0.1083,0.1092,0.1135,0.1144,0.1155,0.1132,0.1126,0.108,0.1061,0.096,0.0871,0.0727,0.0532,0.0516,0.0329,0.0257,0.019,0.0192,0.008,0.0075,0.0136,0.0136,0.0136,0.0136,0.0136,0,0.097,0.0999,0.1081,0.1095,0.1139,0.1165,0.1187,0.1183,0.1175,0.1165,0.1103,0.1055,0.0865,0.0738,0.0575,0.0395,0.0357,0.0236,0.0178,0.0139,0.014,0.01,0.0097,0.0134,0.0134,0.0135,0.0135,0,0.0925,0.0983,0.1032,0.1106,0.1128,0.1148,0.1201,0.1221,0.1215,0.1197,0.1181,0.1101,0.0951,0.0785,0.0534,0.0435,0.0255,0.019,0.0201,0.0149,0.0169,0.0174,0.013,0.0131,0.0132,0.0132,0.0133,0,0.0904,0.0929,0.102,0.1055,0.1081,0.113,0.1165,0.1209,0.1235,0.1209,0.1199,0.1085,0.0998,0.0729,0.0531,0.0319,0.0252,0.0147,0.0112,0.0222,0.0169,0.0173,0.0177,0.0023,0.0023,0.0022,0.0022,0,0.0855,0.0882,0.0932,0.101,0.106,0.1129,0.1187,0.1223,0.1263,0.1253,0.1222,0.116,0.0944,0.0703,0.0466,0.0328,0.0196,0.014,0.0196,0.0061,0.0122,0.0071,0.0077,0.0019,0.002,0.002,0.002,0.002,0.0796,0.0823,0.0895,0.0964,0.1029,0.1113,0.1158,0.1232,0.1273,0.125,0.122,0.1068,0.0742,0.041,0.0264,0.0194,0.0209,0.0081,0.008,0.0079,0.0109,0.0171,0.0085,0.0086,0.0086,0.0087,0.0087,0,0.0733,0.0788,0.0854,0.0947,0.1008,0.1053,0.1161,0.1211,0.1255,0.1187,0.1143,0.0732,0.0497,0.0263,0.0162,0.0067,0.0057,0.0017,-0.0037,-0.0033,-0.003,-0.0008,-0.0063,-0.0063,-0.0063,-0.0064,0,0,0.0705,0.0753,0.0812,0.0902,0.0959,0.1025,0.1079,0.1151,0.114,0.1043,0.0883,0.0657,0.0377,0.0152,0.0018,0.0026,0.0041,0.0033,0.0158,0.0116,0.012,0.0007,0.0047,0,0,0,0,0]}],[{"header":{"parameterUnit":"m.s-1","parameterCategory":2,"la1":30.2991,"la2":30.254,"lo1":-89.0895,"lo2":-89.0444,"dy":0.0017,"dx":0.0017,"nx":28,"ny":28,"refTime":"2023-08-07T09:00:00:Z","depth":"4","parameterNumber":2,"parameterNumberName":"U-component_of_CURRENTS"},"data":[0,0,0,0,0,0,0,0,0,0,0,0,0,0,0,0,0,0,0,0,0,0,0,0,0,0,0,0,0,0,0,0,0,0,0,0,0,0,0,0,0,0,0,0,0,0,0,0,0,0,0,0,0,0,0,0,0,0,-0.0622,-0.0623,0,-0.0715,-0.0716,-0.0716,-0.0708,-0.0707,-0.0705,-0.0704,-0.0796,-0.0799,-0.0803,0,0,0,0,0,0,0,0,0,0,0,0,0,-0.0509,-0.0511,-0.0622,-0.0623,-0.0624,-0.0714,-0.0716,-0.0717,-0.0708,-0.0707,-0.0705,-0.0704,-0.0795,-0.0799,-0.0803,0,0,0,0,0,0,0,0,0,0,0,0,0,-0.0574,-0.0511,-0.0622,-0.0632,-0.0634,-0.0714,-0.0716,-0.0717,-0.0709,-0.0707,-0.0705,-0.0703,-0.0793,-0.0799,-0.0804,-0.0876,0,0,-0.0821,-0.0823,0,0,0,0,0,0,0,0,-0.057,-0.0578,-0.0629,-0.0632,-0.0634,-0.0699,-0.071,-0.0771,-0.0709,-0.0679,-0.0704,-0.0702,-0.0766,-0.0774,-0.0793,-0.088,-0.0884,-0.0821,-0.0824,-0.0827,-0.0828,0,0,0,0,0,0,0,-0.0566,-0.0574,-0.0657,-0.0631,-0.0634,-0.0657,-0.0663,-0.0721,-0.0731,-0.0681,-0.0681,-0.0695,-0.0767,-0.0788,-0.0795,-0.0885,-0.0821,-0.0826,-0.0829,-0.0831,-0.1023,-0.1025,0,0,0,0,0,0,-0.0556,-0.057,-0.0654,-0.066,-0.0599,-0.0661,-0.0668,-0.0679,-0.073,-0.0736,-0.0696,-0.0694,-0.0779,-0.0789,-0.0798,-0.0883,-0.0827,-0.0832,-0.0835,-0.1021,-0.1023,-0.1025,0,0,0,0,0,0,-0.0554,-0.0563,-0.065,-0.0618,-0.0631,-0.0664,-0.0677,-0.0682,-0.0702,-0.0742,-0.0747,-0.0711,-0.0778,-0.0791,-0.0862,-0.0886,-0.0834,-0.0839,-0.1019,-0.1022,-0.1024,-0.1054,0,0,0,0,0,0,-0.055,-0.0561,-0.0573,-0.0618,-0.0633,-0.0697,-0.068,-0.0685,-0.0714,-0.0712,-0.0758,-0.0764,-0.0778,-0.0854,-0.0867,-0.0893,-0.0843,-0.1017,-0.102,-0.1024,-0.1051,-0.1058,-0.1063,0,0,0,0,0,-0.0546,-0.0568,-0.0573,-0.0584,-0.0645,-0.0698,-0.0708,-0.0724,-0.0717,-0.0733,-0.0771,-0.0762,-0.0884,-0.0861,-0.0876,-0.0903,-0.1015,-0.1019,-0.1023,-0.1048,-0.1056,-0.1063,0,0,0,0,0,0,-0.053,-0.0571,-0.0577,-0.0612,-0.0651,-0.0697,-0.0723,-0.0733,-0.0777,-0.078,-0.0802,-0.0813,-0.0876,-0.0897,-0.087,-0.0968,-0.0943,-0.095,-0.0956,-0.0964,-0.0971,-0.0951,-0.0848,0,0,0,0,0,-0.0534,-0.0557,-0.0601,-0.0631,-0.0652,-0.0689,-0.0715,-0.073,-0.0773,-0.0789,-0.082,-0.0861,-0.0909,-0.094,-0.0981,-0.1054,-0.1038,-0.1077,-0.1083,-0.1088,-0.1084,-0.11,-0.1107,-0.1039,-0.1039,-0.1039,0,0,-0.0534,-0.0565,-0.0576,-0.063,-0.0663,-0.0704,-0.07,-0.0748,-0.0784,-0.0798,-0.0858,-0.0887,-0.0933,-0.1,-0.103,-0.102,-0.1097,-0.1094,-0.1098,-0.109,-0.1105,-0.1111,-0.1117,-0.1042,-0.1041,-0.1041,0,0,-0.0555,-0.0578,-0.0605,-0.0642,-0.0699,-0.0726,-0.0739,-0.0791,-0.0814,-0.0886,-0.0896,-0.0942,-0.1023,-0.1052,-0.1081,-0.1154,-0.1125,-0.1165,-0.119,-0.1207,-0.1211,-0.1216,-0.1183,-0.1184,-0.1173,-0.1173,-0.1173,0,-0.0553,-0.0591,-0.0623,-0.0667,-0.0709,-0.0733,-0.0783,-0.0816,-0.0883,-0.0917,-0.0907,-0.1019,-0.1046,-0.1128,-0.1141,-0.1166,-0.1152,-0.1155,-0.1212,-0.1216,-0.122,-0.1185,-0.1186,-0.1175,-0.1175,-0.1175,-0.1175,0,-0.0589,-0.0627,-0.0652,-0.0708,-0.0766,-0.0807,-0.0867,-0.0901,-0.0931,-0.0969,-0.1049,-0.1091,-0.1148,-0.1167,-0.1177,-0.1228,-0.12,-0.121,-0.1185,-0.1228,-0.1189,-0.1189,-0.1178,-0.1177,-0.1177,-0.1176,0,0,-0.0577,-0.0651,-0.0669,-0.0702,-0.0791,-0.0841,-0.0908,-0.098,-0.1018,-0.1073,-0.1134,-0.1204,-0.121,-0.124,-0.1258,-0.1272,-0.1273,-0.1249,-0.1249,-0.1201,-0.1271,-0.1127,-0.1112,-0.1293,-0.1294,-0.1295,-0.1224,0,-0.0593,-0.065,-0.0717,-0.08,-0.083,-0.0901,-0.0962,-0.1039,-0.1093,-0.1148,-0.1197,-0.1252,-0.1246,-0.1265,-0.1285,-0.1283,-0.1278,-0.1288,-0.125,-0.1247,-0.1103,-0.111,-0.1297,-0.1224,-0.1224,-0.1224,-0.1224,0,-0.0623,-0.0649,-0.0728,-0.0821,-0.0851,-0.0927,-0.1036,-0.1093,-0.1177,-0.1215,-0.1277,-0.13,-0.134,-0.1317,-0.1326,-0.1332,-0.1295,-0.1282,-0.1279,-0.1133,-0.1104,-0.118,-0.1224,-0.1224,-0.1224,-0.1224,-0.1224,0,-0.0593,-0.0677,-0.0738,-0.0773,-0.0877,-0.0955,-0.1016,-0.1122,-0.1175,-0.1252,-0.1281,-0.1341,-0.1354,-0.1349,-0.1312,-0.1318,-0.1297,-0.1305,-0.1138,-0.1126,-0.1264,-0.126,-0.1291,-0.1291,-0.1292,-0.1292,-0.1292,0,-0.0576,-0.0632,-0.0728,-0.0766,-0.0844,-0.0948,-0.1058,-0.1106,-0.1201,-0.1235,-0.1308,-0.1286,-0.136,-0.1353,-0.1321,-0.1214,-0.1301,-0.1124,-0.1101,-0.1276,-0.1275,-0.1261,-0.1259,-0.1289,-0.129,-0.129,-0.1291,0,-0.0548,-0.0598,-0.068,-0.0799,-0.0842,-0.091,-0.1061,-0.1099,-0.1194,-0.1235,-0.1248,-0.1265,-0.1183,-0.124,-0.1208,-0.1193,-0.1131,-0.107,-0.1223,-0.1213,-0.0942,-0.0942,-0.0865,-0.0859,-0.0855,-0.0851,-0.0847,0,-0.052,-0.0564,-0.0708,-0.0741,-0.0811,-0.0914,-0.0959,-0.1077,-0.1079,-0.1155,-0.1106,-0.1096,-0.1078,-0.0928,-0.0978,-0.0935,-0.0921,-0.0941,-0.0961,-0.0913,-0.09,-0.0908,-0.0914,-0.084,-0.0838,-0.0837,-0.0836,0,-0.0481,-0.0576,-0.0626,-0.0692,-0.0764,-0.0809,-0.0857,-0.085,-0.0932,-0.1061,-0.0924,-0.0905,-0.0806,-0.0753,-0.076,-0.0723,-0.0973,-0.0891,-0.0901,-0.0919,-0.0882,-0.0875,-0.0887,-0.0819,-0.0822,-0.0823,-0.0824,0,-0.047,-0.0485,-0.0569,-0.0621,-0.0682,-0.0646,-0.0701,-0.0659,-0.0687,-0.0765,-0.0684,-0.0676,-0.072,-0.063,-0.0603,-0.0597,-0.0571,-0.0621,-0.0644,-0.0663,-0.0637,-0.0563,-0.0365,0,0,0,0,0,-0.0437,-0.0429,-0.0472,-0.048,-0.0532,-0.0568,-0.0591,-0.0623,-0.0699,-0.0569,-0.0639,-0.0523,-0.0479,-0.0437,-0.0377,-0.0486,-0.0577,-0.0422,-0.0647,-0.0728,-0.0747,-0.074,0,0,0,0,0,0,-0.0395,-0.0426,-0.0433,-0.0362,-0.0349,-0.0356,-0.0377,-0.0416,-0.0313,-0.0417,-0.0333,-0.0501,-0.0391,-0.0483,-0.0361,-0.0371,-0.0506,-0.0452,-0.0451,-0.0717,-0.0734,-0.075,-0.0749,0,0,0,0,0]},{"header":{"parameterUnit":"m.s-1","parameterCategory":2,"la1":30.2991,"la2":30.254,"lo1":-89.0895,"lo2":-89.0444,"dy":0.0017,"dx":0.0017,"nx":28,"ny":28,"refTime":"2023-08-07T09:00:00:Z","depth":"4","parameterNumber":3,"parameterNumberName":"V-component_of_CURRENTS"},"data":[0,0,0,0,0,0,0,0,0,0,0,0,0,0,0,0,0,0,0,0,0,0,0,0,0,0,0,0,0,0,0,0,0,0,0,0,0,0,0,0,0,0,0,0,0,0,0,0,0,0,0,0,0,0,0,0,0,0,-0.0506,-0.0505,0,-0.0468,-0.0468,-0.0467,-0.044,-0.0439,-0.0439,-0.0439,-0.0318,-0.0315,-0.0312,0,0,0,0,0,0,0,0,0,0,0,0,0,-0.0482,-0.0483,-0.0506,-0.0505,-0.0505,-0.0468,-0.0468,-0.0467,-0.044,-0.0439,-0.0439,-0.0439,-0.0319,-0.0315,-0.0311,0,0,0,0,0,0,0,0,0,0,0,0,0,-0.0472,-0.0483,-0.0506,-0.0488,-0.0486,-0.0469,-0.0468,-0.0467,-0.044,-0.0439,-0.0439,-0.0439,-0.032,-0.0315,-0.0311,-0.0287,0,0,-0.0297,-0.0295,0,0,0,0,0,0,0,0,-0.0473,-0.0473,-0.0491,-0.0489,-0.0487,-0.0459,-0.0415,-0.0403,-0.044,-0.0456,-0.0439,-0.0439,-0.0358,-0.035,-0.0343,-0.0281,-0.0276,-0.0296,-0.0293,-0.0291,-0.029,0,0,0,0,0,0,0,-0.0474,-0.0474,-0.049,-0.049,-0.0488,-0.0457,-0.0456,-0.0413,-0.0406,-0.0454,-0.0453,-0.045,-0.0356,-0.0348,-0.034,-0.0274,-0.0296,-0.0292,-0.0289,-0.0288,-0.0181,-0.0181,0,0,0,0,0,0,-0.0485,-0.0476,-0.0491,-0.0489,-0.048,-0.0458,-0.0457,-0.0467,-0.0409,-0.04,-0.0451,-0.0449,-0.0356,-0.0346,-0.0336,-0.0294,-0.0292,-0.0287,-0.0284,-0.0181,-0.0181,-0.0181,0,0,0,0,0,0,-0.0485,-0.0487,-0.0493,-0.0481,-0.048,-0.0459,-0.0471,-0.0467,-0.0462,-0.0407,-0.0397,-0.045,-0.0356,-0.0342,-0.0309,-0.0289,-0.0285,-0.0281,-0.0182,-0.0181,-0.0181,-0.0216,0,0,0,0,0,0,-0.0485,-0.0488,-0.0501,-0.0483,-0.0481,-0.0482,-0.0471,-0.0466,-0.0461,-0.0459,-0.0403,-0.0391,-0.0354,-0.0317,-0.0305,-0.0283,-0.0277,-0.0182,-0.0182,-0.0181,-0.0215,-0.0217,-0.0219,0,0,0,0,0,-0.0484,-0.0499,-0.0503,-0.0504,-0.05,-0.0482,-0.0478,-0.0461,-0.0461,-0.0456,-0.043,-0.0393,-0.0307,-0.0314,-0.0299,-0.0275,-0.0182,-0.0182,-0.0181,-0.0214,-0.0217,-0.0219,0,0,0,0,0,0,-0.0494,-0.0498,-0.0501,-0.0517,-0.0502,-0.0478,-0.0472,-0.0467,-0.0444,-0.0443,-0.0397,-0.0383,-0.0343,-0.0312,-0.032,-0.0246,-0.0236,-0.0233,-0.0266,-0.0268,-0.027,-0.0278,-0.0273,0,0,0,0,0,-0.0506,-0.0521,-0.051,-0.0523,-0.0516,-0.0498,-0.0491,-0.0481,-0.0458,-0.0449,-0.0414,-0.0374,-0.0331,-0.0305,-0.0264,-0.0227,-0.0192,-0.0202,-0.0204,-0.0206,-0.0204,-0.0133,-0.0128,-0.0181,-0.0181,-0.0181,0,0,-0.051,-0.0517,-0.0524,-0.0526,-0.0512,-0.0501,-0.0492,-0.0482,-0.0472,-0.0437,-0.0413,-0.038,-0.0325,-0.0284,-0.0262,-0.0255,-0.0177,-0.0206,-0.0208,-0.0204,-0.0132,-0.0127,-0.0122,-0.0181,-0.0181,-0.0181,0,0,-0.0515,-0.0534,-0.0538,-0.0529,-0.0519,-0.0508,-0.0509,-0.0489,-0.0477,-0.0455,-0.0425,-0.0388,-0.033,-0.0285,-0.0254,-0.0243,-0.0193,-0.023,-0.0239,-0.017,-0.0165,-0.016,-0.013,-0.0122,-0.0228,-0.0228,-0.0228,0,-0.0521,-0.0528,-0.0533,-0.0528,-0.0532,-0.0514,-0.0514,-0.0491,-0.0465,-0.0457,-0.045,-0.037,-0.0324,-0.0265,-0.0264,-0.0243,-0.0215,-0.0234,-0.0172,-0.0166,-0.016,-0.0131,-0.0121,-0.0229,-0.0229,-0.0229,-0.0229,0,-0.0509,-0.0523,-0.052,-0.0519,-0.0528,-0.0518,-0.0504,-0.0492,-0.0484,-0.0465,-0.0421,-0.0367,-0.032,-0.0295,-0.0274,-0.0212,-0.021,-0.0185,-0.0166,-0.0157,-0.0127,-0.0117,-0.0232,-0.0231,-0.0231,-0.023,0,0,-0.0519,-0.0511,-0.0519,-0.053,-0.0526,-0.0538,-0.0518,-0.0502,-0.0497,-0.0452,-0.0435,-0.0358,-0.034,-0.0305,-0.0267,-0.0208,-0.0148,-0.0187,-0.0182,-0.0159,-0.0025,-0.014,-0.014,-0.0111,-0.0109,-0.0107,-0.0029,0,-0.0509,-0.05,-0.0518,-0.0537,-0.0531,-0.0539,-0.0531,-0.0523,-0.0505,-0.0478,-0.0408,-0.0374,-0.0338,-0.0322,-0.0254,-0.0172,-0.0119,-0.0173,-0.0036,-0.0032,-0.0136,-0.0131,-0.0101,-0.0021,-0.0018,-0.0017,-0.0015,0,-0.0505,-0.0499,-0.0513,-0.0549,-0.0555,-0.0583,-0.0606,-0.059,-0.054,-0.0522,-0.0469,-0.0422,-0.0332,-0.0306,-0.0149,-0.0188,-0.0113,-0.0049,-0.0043,-0.013,-0.0128,-0.0025,0.0004,0.0003,0.0001,0.0,-0.0001,0,-0.0515,-0.0522,-0.0544,-0.055,-0.0568,-0.061,-0.0625,-0.0614,-0.0605,-0.0554,-0.054,-0.0434,-0.0381,-0.0257,-0.0144,-0.0135,0.0015,0.0053,0.0019,0.0012,0.011,0.0104,0.0166,0.0166,0.0166,0.0166,0.0166,0,-0.0498,-0.0528,-0.0559,-0.0573,-0.0625,-0.0643,-0.0693,-0.0683,-0.0656,-0.0647,-0.0569,-0.0534,-0.0364,-0.0267,-0.0151,-0.0058,0.0015,0.0012,0.0028,0.0088,0.008,0.0116,0.0109,0.0169,0.0168,0.0168,0.0167,0,-0.051,-0.0511,-0.056,-0.0607,-0.0639,-0.0685,-0.0748,-0.0755,-0.0728,-0.0711,-0.0693,-0.0589,-0.0483,-0.0345,-0.0155,-0.0092,0.0025,0.004,0.0055,0.0072,-0.0018,-0.0028,0.0029,0.0026,0.0023,0.0021,0.0019,0,-0.0497,-0.0521,-0.0615,-0.0656,-0.0698,-0.0758,-0.0795,-0.0794,-0.0777,-0.0747,-0.0714,-0.0646,-0.0573,-0.0371,-0.0253,-0.0081,-0.0057,-0.0001,0.0026,-0.0041,-0.003,-0.0035,-0.004,0.0014,0.0014,0.0013,0.0012,0,-0.0492,-0.056,-0.0589,-0.0676,-0.0752,-0.0811,-0.0846,-0.0816,-0.0794,-0.0801,-0.0709,-0.0642,-0.0551,-0.0399,-0.0302,-0.0167,-0.0034,-0.003,-0.0021,0.0005,-0.0058,-0.0046,-0.0048,0.0002,0.0004,0.0005,0.0005,0,-0.0512,-0.0532,-0.0597,-0.0662,-0.0779,-0.0825,-0.0833,-0.08,-0.0778,-0.0708,-0.0699,-0.0616,-0.0569,-0.0449,-0.0347,-0.0259,-0.0216,-0.0146,-0.0131,-0.0119,-0.0206,-0.0311,-0.0317,0,0,0,0,0,-0.0505,-0.0503,-0.0572,-0.0619,-0.0749,-0.082,-0.0853,-0.0827,-0.0795,-0.0727,-0.0696,-0.0617,-0.0516,-0.0459,-0.0383,-0.0409,-0.0216,-0.0322,-0.0129,-0.0052,-0.0041,-0.0132,0,0,0,0,0,0,-0.0481,-0.053,-0.0536,-0.06,-0.065,-0.0755,-0.0797,-0.0766,-0.0681,-0.0658,-0.0574,-0.0607,-0.0474,-0.0546,-0.0379,-0.0366,-0.0236,-0.0288,-0.0286,-0.0059,-0.0049,-0.0039,-0.0128,0,0,0,0,0]}]]